Location: Sydney
(46.1500°N, 60.1670°W)
Time: 08:15:46
(UTC-03:00)

Iridium 90 - Visible Passes

Search period start: 01 September 2014 00:00
Search period end: 11 September 2014 00:00
Orbit: 746 x 751 km, 86.4° (Epoch: 31 August)

Date Brightness Start Highest point End Pass type
(mag) Time Alt. Az. Time Alt. Az. Time Alt. Az.
01 Sep 8.7 04:39:07 10° E 04:41:01 12° ENE 04:42:55 10° NE visible
02 Sep 6.8 05:33:36 10° SSE 05:38:22 43° E 05:43:09 10° NNE visible
03 Sep 8.2 04:52:53 10° SE 04:56:37 21° E 05:00:21 10° NNE visible
04 Sep 5.7 05:49:11 10° S 05:54:14 77° E 05:59:19 10° N visible
05 Sep 7.2 05:07:45 10° SSE 05:12:20 36° E 05:16:56 10° NNE visible
06 Sep 8.3 04:27:22 10° ESE 04:30:38 18° ENE 04:33:55 10° NE visible
07 Sep 6.0 05:23:11 10° S 05:28:10 64° E 05:33:10 10° N visible
08 Sep 7.4 04:41:58 10° SE 04:46:19 30° E 04:50:40 10° NNE visible
09 Sep 8.3 04:02:00 10° ESE 04:04:40 15° ENE 04:07:20 10° NE visible
09 Sep 5.4 05:39:03 10° S 05:44:06 74° W 05:49:11 10° N visible
10 Sep 6.3 04:57:13 10° SSE 05:02:06 52° E 05:07:00 10° NNE visible
